AirNav   Pilot Hours Calculator
 
 1542 users online  

32CL Bob's Flying Service Inc Airport
Knights Landing, California, USA

GOING TO KNIGHTS LANDING?


FAA INFORMATION EFFECTIVE 04 NOVEMBER 2021

Location

FAA Identifier: 32CL
Lat/Long: 38-49-59.6400N 121-43-03.8720W
38-49.994000N 121-43.064533W
38.8332333,-121.7177422
(estimated)
Elevation: 40 ft. / 12 m (estimated)
Variation: 16E (1985)
From city: 2 miles N of KNIGHTS LANDING, CA
Time zone: UTC -7 (UTC -8 during Standard Time)
Zip code: 95645

Airport Operations

Airport use: Private use. Permission required prior to landing
Activation date: 01/1972
Control tower: no
ARTCC: OAKLAND CENTER
FSS: RANCHO MURIETA FLIGHT SERVICE STATION
Attendance: MON-SAT 0800-1700
Wind indicator: yes
Segmented circle: no

Airport Communications

WX ASOS at SMF (10 nm SE): PHONE 916-649-3996
WX AWOS-3P at DWA (17 nm SW): 125.775 (530-750-2759)
WX ASOS at MYV (17 nm NE): 118.475 (530-742-0695)
WX AWOS-3 at LHM (18 nm E): 124.25 (916-645-0698)
WX AWOS-3 at MCC (18 nm SE): 125.975 (916-641-1272)
WX AWOS-3 at EDU (18 nm S): 119.025 (530-754-6839)

Nearby radio navigation aids

VOR radial/distance  VOR name  Freq  Var
MYVr187/17.3MARYSVILLE VOR/DME110.8016E
MCCr287/17.7MC CLELLAN VOR/DME109.2017E
ILAr117/20.3WILLIAMS VORTAC114.4018E
SACr325/24.6SACRAMENTO VORTAC115.2017E

Airport Services

Fuel available: 100 JET-A
Airframe service: NONE
Powerplant service: NONE

Runway Information

Runway N/S

Dimensions: 2500 x 50 ft. / 762 x 15 m
Surface: gravel/treated
RUNWAY N  RUNWAY S
Traffic pattern: leftleft
Obstructions: 100 ft. tower, lighted3 ft. fence

Airport Ownership and Management from official FAA records

Ownership: Privately-owned
Owner: BOB STICKEL
STAR ROUTE, BOX 446
KNIGHTS LANDING, CA 95645
Phone 916-735-6201
Manager: BOB STICKEL
STAR ROUTE, BOX 446
KNIGHTS LANDING, CA 95645
Phone 916-735-6201

Airport Operational Statistics

Aircraft based on the field: 5
Single engine airplanes: 4
Multi engine airplanes: 1
    

Additional Remarks

FOR CD CTC NORCAL APCH AT 916-361-6874.

Instrument Procedures

There are no published instrument procedures at 32CL.

Some nearby airports with instrument procedures:

KSMF - Sacramento International Airport (10 nm SE)
O41 - Watts-Woodland Airport (12 nm SW)
KDWA - Yolo County Airport (17 nm SW)
KMYV - Yuba County Airport (17 nm NE)
KLHM - Lincoln Regional Airport/Karl Harder Field (18 nm E)
KMCC - Mc Clellan Airfield (18 nm SE)
KEDU - University Airport (18 nm S)
 
Loc | Ops | Rwys | IFR | FBO | Links
Com | Nav | Svcs | Stats | Notes

Sonoma Jet Center
 
Area around 32CL (Bob's Flying Service Inc Airport)
 
Road maps at: MapQuest Bing Google
 
Aerial photo
No photo
 
Sectional chart

 
Airport distance calculator
Flying to Bob's Flying Service Inc Airport? Find the distance to fly.

From to 32CL

Sunrise and sunset
Times for 29-Nov-2021
 Local
(UTC-8)
 Zulu
(UTC)
Morning civil twilight06:3614:36
Sunrise07:0515:05
Sunset16:4500:45
Evening civil twilight17:1401:14

Current date and time
Zulu (UTC)  30-Nov-2021 00:57:44
Local (UTC-8)  29-Nov-2021 16:57:44
 
METAR
KSMF 
10nm SE 
300053Z 00000KT 8SM CLR 17/12 A3009 RMK AO2 SLP189 T01720117
KDWA 
17nm SW 
300035Z AUTO 00000KT 10SM CLR 19/12 A3011 RMK AO2
KMYV 
17nm NE 
300053Z AUTO 36003KT 10SM CLR 17/11 A3010 RMK AO2 SLP197 T01720106
KLHM 
18nm E 
300035Z AUTO 00000KT 10SM CLR 16/10 A3009 RMK AO1
KMCC 
18nm SE 
300035Z AUTO 31004KT 10SM CLR 17/12 A3010 RMK AO2
KEDU 
18nm S 
300035Z AUTO 00000KT 10SM CLR 19/10 A3011 RMK AO1
TAF
KSMF 
10nm SE 
291720Z 2918/3018 33004KT P6SM FEW250 FM300700 VRB03KT 4SM BR FEW250 FM301300 34002KT 2SM BR BCFG FEW250
KMCC 
18nm SE 
291720Z 2918/3018 VRB04KT P6SM FEW250 FM300900 VRB02KT 4SM BR FEW250
NOTAMs
Click for the latest NOTAMs
NOTAMs are issued by the DoD/FAA and will open in a separate window not controlled by AirNav.

 

 
 

Would you like to see your business listed on this page?

 If your business provides an interesting product or service to pilots, flight crews, aircraft, or users of the Bob's Flying Service Inc Airport, you should consider listing it here.  To start the listing process, click on the button below
 
Add a business
 

Other Pages about Bob's Flying Service Inc Airport

Update a link
 
Copyright © AirNav, LLC. All rights reserved. Privacy Policy  Contact